www.pogodaiklimat.ru

Погода и климат >> Архив погоды >> Австралия >> Tibooburra Airport


ПОГОДА в Tibooburra Airport

  • Прогноз погоды в Tibooburra Airport
  • Монитор погоды в Tibooburra Airport
  • Климат города

АРХИВ ПОГОДЫ в Tibooburra Airport

Время (UTC), дата Ветер
(напр.,м/с)
 
Видим.   Явления Облачность Т
(С)
Тd
(С)
f
(%)
Тe
(С)
Тes
(С)
Комфортность P
(гПа)
Po
(гПа)
Тmin
(С)
Tmax
(С)
R
(мм)
R24
(мм)
S
(см)
10 11.12 Ю 5 н/о н/о +34.0 -0.6 11 +30 +30 жарко 1012.2 992.2
11 11.12 Ю 4 н/о н/о +32.4 +0.5 13 +29 +29 жарко 1012.6 992.6
12 11.12 ЮВ 5 н/о н/о +31.4 +0.7 14 +28 +28 жарко 1013.0 993.0
14 11.12 ЮВ 5 н/о н/о +29.4 +1.0 16 +27 +27 жарко 1013.2 993.2
13 11.12 Ю 5 н/о н/о +30.4 +0.9 15 +28 +28 жарко 1013.3 993.3 +37.9
15 11.12 ЮВ 5 н/о н/о +28.3 +0.9 17 +26 +26 жарко 1012.6 992.6
16 11.12 ЮВ 4 н/о н/о +27.1 +0.8 18 +25 +25 комфорт 1011.9 991.9
17 11.12 ЮВ 4 н/о н/о +27.0 +0.7 18 +25 +25 комфорт 1011.8 991.8
18 11.12 ЮВ 4 н/о н/о +26.2 0.0 18 +24 +24 комфорт 1012.2 992.2
20 11.12 Ю 3 н/о н/о +25.9 +0.5 19 +24 +24 комфорт 1012.8 992.8
19 11.12 Ю 2 н/о н/о +25.3 +0.8 20 +24 +24 комфорт 1012.4 992.4
21 11.12 ЮВ 4 н/о н/о +28.9 +0.6 16 +26 +26 жарко 1013.4 993.4
22 11.12 В 6 н/о н/о +30.8 +1.2 15 +28 +28 жарко 1013.7 993.7
23 11.12 В 7 н/о н/о +33.9 +0.5 12 +31 +31 жарко 1013.5 993.5
00 12.12 СВ 6 н/о н/о +35.2 +3.7 14 +32 +32 жарко 1013.4 993.4
02 12.12 З 4 н/о н/о +37.3 +0.6 10 +34 +34 очень
жарко
1012.1 992.1
01 12.12 СВ 3 н/о н/о +37.4 +0.7 10 +34 +34 очень
жарко
1012.9 992.9 +24.4
03 12.12 Ю 4 н/о н/о +38.0 -0.3 9 +34 +34 очень
жарко
1011.4 991.4
04 12.12 СВ 3 н/о н/о +38.6 -1.5 8 +35 +35 очень
жарко
1010.4 990.4
05 12.12 ЮВ 4 н/о н/о +39.1 -1.1 8 +35 +35 очень
жарко
1009.4 989.5
06 12.12 СВ 4 н/о н/о +39.4 -0.9 8 +36 +36 очень
жарко
1008.6 988.7
08 12.12 ЮЗ 2 н/о н/о +38.6 -1.5 8 +35 +35 очень
жарко
1008.4 988.5
07 12.12 Ю 4 н/о н/о +38.7 -1.4 8 +35 +35 очень
жарко
1008.4 988.5
09 12.12 Ю 5 н/о н/о +37.9 -2.0 8 +34 +34 очень
жарко
1008.8 988.9
10 12.12 Ю 3 н/о н/о +35.8 -2.0 9 +32 +32 жарко 1009.1 989.2
11 12.12 ЮВ 4 н/о н/о +34.3 -3.1 9 +30 +30 жарко 1009.5 989.6
12 12.12 ЮВ 2 н/о н/о +31.8 -2.3 11 +28 +28 жарко 1009.7 989.7
14 12.12 ЮВ 2 н/о н/о +29.7 -1.6 13 +27 +27 жарко 1009.1 989.2
13 12.12 ЮВ 3 н/о н/о +31.6 -2.4 11 +28 +28 жарко 1009.5 989.6 +40.7
15 12.12 ЮЗ 1 н/о н/о +28.2 -0.9 15 +26 +26 жарко 1008.3 988.4
16 12.12 ЮВ 3 н/о н/о +28.6 -1.5 14 +26 +26 жарко 1007.6 987.7
17 12.12 В 4 н/о н/о +26.0 -2.6 15 +24 +24 комфорт 1007.3 987.4
18 12.12 СВ 3 н/о н/о +27.2 +1.6 19 +25 +25 комфорт 1007.4 987.5
20 12.12 СВ 3 н/о н/о +26.5 +1.7 20 +25 +25 комфорт 1008.4 988.5
19 12.12 СВ 3 н/о н/о +27.1 +2.2 20 +25 +25 комфорт 1007.7 987.8
21 12.12 СВ 5 н/о н/о +30.7 +2.0 16 +28 +28 жарко 1009.1 989.2
22 12.12 С 7 н/о н/о +33.2 +2.1 14 +30 +30 жарко 1009.5 989.6
23 12.12 С 9 н/о н/о +36.6 +1.4 11 +33 +33 жарко 1009.7 989.7
00 13.12 С 7 н/о н/о +38.5 +1.5 10 +35 +35 очень
жарко
1009.2 989.3
02 13.12 СЗ 6 н/о н/о +39.0 -1.2 8 +35 +35 очень
жарко
1008.0 988.1
01 13.12 С 6 н/о н/о +39.6 -0.8 8 +36 +36 очень
жарко
1008.8 988.9 +26.0
03 13.12 СВ 7 н/о н/о +41.2 -1.4 7 +37 +37 очень
жарко
1007.0 987.1
04 13.12 С 6 н/о н/о +40.5 -1.9 7 +36 +36 очень
жарко
1006.0 986.1
05 13.12 СЗ 3 н/о н/о +41.2 -1.4 7 +37 +37 очень
жарко
1005.2 985.3
06 13.12 С 6 н/о н/о +41.2 -1.4 7 +37 +37 очень
жарко
1004.4 984.6
08 13.12 С 5 н/о н/о +41.0 -1.6 7 +37 +37 очень
жарко
1003.7 983.9
07 13.12 С 4 н/о н/о +41.2 -1.4 7 +37 +37 очень
жарко
1003.9 984.1
09 13.12 С 5 н/о н/о +39.8 -2.4 7 +36 +36 очень
жарко
1003.9 984.1
10 13.12 С 4 н/о н/о +37.6 -2.2 8 +34 +34 очень
жарко
1004.3 984.5
11 13.12 С 4 н/о н/о +35.6 -0.7 10 +32 +32 жарко 1004.4 984.6
12 13.12 С 4 н/о н/о +34.1 -0.5 11 +31 +31 жарко 1004.8 984.9
14 13.12 С 4 н/о н/о +32.1 +0.2 13 +29 +29 жарко 1004.4 984.6
13 13.12 С 4 н/о н/о +32.9 -0.2 12 +30 +30 жарко 1004.8 984.9 +42.5
15 13.12 С 5 н/о н/о +31.1 +0.5 14 +28 +28 жарко 1003.9 984.1
16 13.12 С 5 н/о н/о +30.5 +1.0 15 +28 +28 жарко 1003.5 983.7
17 13.12 С 4 н/о н/о +29.1 +1.6 17 +27 +27 жарко 1003.5 983.7
18 13.12 ЮЗ 6 н/о н/о +28.9 +2.2 18 +27 +27 жарко 1005.2 985.3
20 13.12 СЗ 4 н/о н/о +31.4 +2.6 16 +29 +29 жарко 1006.3 986.4
19 13.12 ЮЗ 2 н/о н/о +27.6 +1.9 19 +26 +26 жарко 1005.7 985.8
21 13.12 С 5 н/о н/о +34.1 +0.7 12 +31 +31 жарко 1006.3 986.4
22 13.12 С 7 н/о н/о +36.0 -0.4 10 +32 +32 жарко 1006.5 986.6
23 13.12 С 6 н/о н/о +37.9 -0.4 9 +34 +34 очень
жарко
1006.3 986.4
00 14.12 С 8 н/о н/о +38.7 +0.2 9 +35 +35 очень
жарко
1005.9 986.0
02 14.12 СЗ 10 н/о н/о +41.5 -1.2 7 +38 +38 очень
жарко
1004.8 984.9
01 14.12 СЗ 10 н/о н/о +39.4 -0.9 8 +36 +36 очень
жарко
1005.5 985.6 +26.9
03 14.12 СЗ 8 н/о н/о +41.4 -1.3 7 +37 +37 очень
жарко
1004.0 984.2
04 14.12 З 8 н/о н/о +40.6 -1.9 7 +37 +37 очень
жарко
1003.1 983.3
05 14.12 ЮЗ 9 н/о н/о +38.7 -1.4 8 +35 +35 очень
жарко
1002.9 983.1
06 14.12 ЮЗ 13 н/о н/о +35.0 +1.4 12 +32 +32 жарко 1004.3 984.5
08 14.12 Ю 8 н/о н/о +33.4 +5.9 18 +31 +31 жарко 1006.3 986.4
07 14.12 ЮЗ 11 н/о н/о +34.7 +3.3 14 +32 +32 жарко 1005.4 985.5
09 14.12 Ю 10 н/о н/о +32.6 +6.7 20 +31 +31 жарко 1006.8 986.9
10 14.12 ЮВ 7 н/о н/о +30.9 +8.6 25 +30 +30 жарко 1006.9 987.0
11 14.12 Ю 6 н/о н/о +30.4 +8.7 26 +30 +30 жарко 1007.4 987.5
12 14.12 ЮВ 6 н/о н/о +29.8 +9.9 29 +30 +30 жарко 1007.5 987.6
14 14.12 Ю 4 н/о н/о +28.8 +10.5 32 +29 +29 жарко 1007.9 988.0
13 14.12 Ю 3 н/о н/о +29.4 +9.5 29 +29 +29 жарко 1008.1 988.2 +42.8
15 14.12 Ю 4 н/о н/о +28.3 +10.9 34 +29 +29 жарко 1007.8 987.9
16 14.12 ЮВ 3 н/о н/о +28.0 +11.5 36 +29 +29 жарко 1007.7 987.8
17 14.12 ЮВ 5 н/о н/о +29.4 +10.5 31 +30 +30 жарко 1008.4 988.5
18 14.12 штиль 0 н/о н/о +26.9 +14.0 45 +29 +29 жарко 1008.3 988.4
20 14.12 З 3 н/о н/о +26.7 +12.7 42 +28 +28 жарко 1009.0 989.1
19 14.12 З 5 н/о н/о +28.3 +10.5 33 +29 +29 жарко 1009.4 989.5
21 14.12 СВ 3 н/о н/о +24.7 +16.7 61 +28 +28 душно 1009.5 989.6
22 14.12 ЮВ 2 н/о {туман} н/о +28.0 +15.6 47 +31 +31 душно 1009.9 989.9
23 14.12 СВ 3 н/о н/о +30.9 +9.7 27 +30 +30 жарко 1009.7 989.7
00 15.12 В 5 н/о н/о +33.1 +8.5 22 +32 +32 жарко 1009.1 989.2
02 15.12 СЗ 6 н/о н/о +37.0 +6.1 15 +34 +34 очень
жарко
1007.7 987.8
01 15.12 С 5 н/о н/о +35.6 +6.8 17 +33 +33 жарко 1008.6 988.7 +24.7
03 15.12 СЗ 4 н/о н/о +37.3 +5.3 14 +35 +35 очень
жарко
1006.8 986.9
04 15.12 З 8 н/о н/о +38.2 +5.0 13 +35 +35 очень
жарко
1006.2 986.3
05 15.12 З 8 н/о н/о +39.7 +3.7 11 +37 +37 очень
жарко
1005.8 985.9
06 15.12 З 9 н/о н/о +39.1 +4.5 12 +36 +36 очень
жарко
1005.2 985.3
08 15.12 З 8 н/о н/о +38.2 +3.8 12 +35 +35 очень
жарко
1005.2 985.3
07 15.12 СЗ 9 н/о н/о +38.7 +4.2 12 +36 +36 очень
жарко
1005.0 985.1
09 15.12 З 5 н/о н/о +37.3 +4.3 13 +34 +34 очень
жарко
1005.9 986.0
10 15.12 З 4 н/о н/о +35.7 +4.1 14 +33 +33 жарко 1006.6 986.7
11 15.12 ЮЗ 4 н/о н/о +34.1 +3.8 15 +31 +31 жарко 1007.2 987.3
12 15.12 ЮЗ 4 н/о н/о +32.6 +4.4 17 +30 +30 жарко 1008.0 988.1
14 15.12 ЮЗ 3 н/о н/о +29.5 +4.9 21 +28 +28 жарко 1008.3 988.4
13 15.12 Ю 2 н/о н/о +30.4 +4.9 20 +29 +29 жарко 1008.5 988.6 +40.3
15 15.12 ЮЗ 3 н/о н/о +28.5 +5.4 23 +27 +27 жарко 1008.0 988.1
16 15.12 ЮЗ 3 н/о н/о +27.7 +5.9 25 +27 +27 жарко 1007.7 987.8
17 15.12 З 3 н/о н/о +27.4 +6.8 27 +27 +27 жарко 1007.5 987.6
18 15.12 З 3 н/о н/о +26.4 +6.4 28 +26 +26 жарко 1007.9 988.0
20 15.12 Ю 3 н/о н/о +25.8 +5.9 28 +25 +25 комфорт 1008.9 989.0
19 15.12 Ю 3 н/о н/о +26.7 +7.2 29 +26 +26 жарко 1008.2 988.3
21 15.12 Ю 3 н/о н/о +29.5 +7.4 25 +29 +29 жарко 1009.5 989.6
22 15.12 В 2 н/о н/о +32.8 +7.6 21 +31 +31 жарко 1010.3 990.3
23 15.12 В 2 н/о н/о +35.2 +6.5 17 +33 +33 жарко 1010.4 990.4
00 16.12 СЗ 3 н/о н/о +36.9 +2.8 12 +34 +34 очень
жарко
1010.2 990.2
02 16.12 СЗ 7 н/о н/о +40.1 -0.4 8 +36 +36 очень
жарко
1009.3 989.4
01 16.12 З 4 н/о н/о +38.2 +1.3 10 +35 +35 очень
жарко
1010.0 990.0 +25.8
03 16.12 З 9 н/о н/о +41.4 +0.5 8 +38 +38 очень
жарко
1008.7 988.8
04 16.12 З 8 н/о н/о +41.3 -1.4 7 +37 +37 очень
жарко
1007.9 988.0
05 16.12 СЗ 8 н/о н/о +40.9 -1.6 7 +37 +37 очень
жарко
1007.2 987.3
06 16.12 З 8 н/о н/о +40.7 -1.8 7 +37 +37 очень
жарко
1006.7 986.8
08 16.12 З 7 н/о н/о +40.1 -6.7 5 +36 +36 очень
жарко
1006.8 986.9
07 16.12 З 8 н/о н/о +40.4 -4.1 6 +36 +36 очень
жарко
1006.4 986.5
09 16.12 З 7 н/о н/о +38.5 -7.8 5 +34 +34 очень
жарко
1007.4 987.5
10 16.12 З 4 н/о н/о +36.0 -5.2 7 +32 +32 жарко 1007.9 988.0
11 16.12 З 5 н/о н/о +34.4 -1.6 10 +31 +31 жарко 1008.2 988.3
12 16.12 З 5 н/о н/о +32.9 -0.2 12 +30 +30 жарко 1008.7 988.8
14 16.12 ЮЗ 5 н/о н/о +31.0 +1.4 15 +28 +28 жарко 1009.0 989.1
13 16.12 ЮЗ 5 н/о н/о +31.6 -0.1 13 +28 +28 жарко 1009.0 989.1 +42.6
15 16.12 ЮЗ 4 н/о н/о +29.6 +2.0 17 +27 +27 жарко 1008.7 988.8
16 16.12 Ю 4 н/о н/о +28.9 +3.0 19 +27 +27 жарко 1008.5 988.6
17 16.12 Ю 4 н/о н/о +28.6 +5.5 23 +27 +27 жарко 1008.2 988.3
18 16.12 ЮЗ 4 н/о н/о +27.5 +5.7 25 +27 +27 жарко 1008.1 988.2
20 16.12 ЮЗ 4 н/о н/о +25.6 +6.3 29 +25 +25 комфорт 1008.9 989.0
19 16.12 ЮЗ 4 н/о н/о +26.2 +6.3 28 +26 +26 жарко 1008.4 988.5
21 16.12 ЮЗ 4 н/о н/о +29.2 +7.2 25 +28 +28 жарко 1009.5 989.6
22 16.12 Ю 4 н/о н/о +32.3 +6.5 20 +30 +30 жарко 1010.2 990.2
23 16.12 Ю 5 н/о н/о +34.0 +6.3 18 +32 +32 жарко 1010.6 990.6
00 17.12 Ю 4 н/о н/о +36.1 +5.4 15 +33 +33 жарко 1010.5 990.5
02 17.12 ЮВ 3 н/о н/о +39.1 +0.5 9 +35 +35 очень
жарко
1009.7 989.7
01 17.12 Ю 2 н/о н/о +37.9 +3.6 12 +35 +35 очень
жарко
1010.1 990.1 +25.4
03 17.12 С 2 н/о н/о +40.4 -2.0 7 +36 +36 очень
жарко
1008.5 988.6
04 17.12 ЮЗ 5 н/о н/о +41.7 -5.6 5 +37 +37 очень
жарко
1007.7 987.8
05 17.12 З 6 н/о н/о +42.4 -5.1 5 +38 +38 очень
жарко
1006.9 987.0
06 17.12 ЮЗ 2 н/о н/о +41.6 -5.6 5 +37 +37 очень
жарко
1006.3 986.4
08 17.12 ЮЗ 4 н/о н/о +41.8 -8.4 4 +37 +37 очень
жарко
1005.8 985.9
07 17.12 ЮЗ 3 н/о н/о +41.2 -8.8 4 +37 +37 очень
жарко
1005.7 985.8
09 17.12 штиль 0 н/о н/о +40.7 -9.1 4 +36 +36 очень
жарко
1006.3 986.4
10 17.12 Ю 1 н/о н/о +37.8 -5.9 6 +33 +33 жарко 1006.7 986.8
11 17.12 ЮЗ 2 н/о н/о +35.3 -5.7 7 +31 +31 жарко 1007.2 987.3
12 17.12 ЮЗ 3 н/о н/о +33.4 -5.3 8 +29 +29 жарко 1007.6 987.7
14 17.12 ЮЗ 4 н/о н/о +31.6 -3.7 10 +28 +28 жарко 1007.9 988.0
13 17.12 ЮЗ 3 н/о н/о +33.0 -2.6 10 +29 +29 жарко 1007.7 987.8 +43.0
15 17.12 Ю 4 н/о н/о +31.8 +1.0 14 +29 +29 жарко 1007.4 987.5
16 17.12 ЮВ 4 н/о н/о +31.4 +2.6 16 +29 +29 жарко 1006.7 986.8
17 17.12 ЮВ 4 н/о н/о +31.0 +3.9 18 +29 +29 жарко 1006.4 986.5
18 17.12 ЮВ 3 н/о н/о +29.5 +4.9 21 +28 +28 жарко 1006.3 986.4
20 17.12 В 4 н/о н/о +29.1 +5.9 23 +28 +28 жарко 1006.6 986.7
19 17.12 ЮВ 4 н/о н/о +28.1 +5.0 23 +27 +27 жарко 1006.4 986.5
21 17.12 СВ 5 н/о н/о +31.8 +6.1 20 +30 +30 жарко 1007.3 987.4
22 17.12 СВ 7 н/о н/о +34.5 +5.9 17 +32 +32 жарко 1007.5 987.6
23 17.12 СВ 6 н/о н/о +37.0 +2.9 12 +34 +34 очень
жарко
1007.5 987.6
00 18.12 С 6 н/о н/о +39.5 -0.8 8 +36 +36 очень
жарко
1007.1 987.2
02 18.12 СЗ 5 н/о н/о +42.8 -4.8 5 +39 +39 очень
жарко
1005.8 985.9
01 18.12 С 7 н/о н/о +42.1 -5.3 5 +38 +38 очень
жарко
1006.5 986.6 +28.0
03 18.12 З 5 н/о н/о +44.9 -6.3 4 +41 +41 опасность
перегрева
1004.8 984.9
04 18.12 СЗ 6 н/о н/о +43.9 -7.0 4 +40 +40 очень
жарко
1003.8 984.0
05 18.12 С 6 н/о н/о +45.2 -6.1 4 +41 +41 опасность
перегрева
1003.0 983.2
06 18.12 С 6 н/о н/о +44.7 -10.1 3 +40 +40 очень
жарко
1002.2 982.4
08 18.12 СЗ 4 н/о н/о +43.8 -7.0 4 +39 +39 очень
жарко
1001.4 981.6
07 18.12 СЗ 4 н/о н/о +44.3 -10.4 3 +40 +40 очень
жарко
1001.7 981.9

 

Местоположение метеостанции Tibooburra Airport (Новый Южный Уэльс, Австралия): широта -29.45 долгота 142.05 высота над уровнем моря 177 м.

В архиве по умолчанию представлена погода в Tibooburra Airport за последнюю неделю. Архивные данные за месяц целиком и за предыдущие месяцы, начиная с января 2011 года, Вы можете получить, выбрав интересующий диапазон дат из раскрывающегося списка и нажав кнопку "Ввод!".

Внимание! Время в таблицах - всемирное. Для получения местного времени необходимо прибавить поправку, которая в Tibooburra Airport равна 10 ч.

Смотрите также архив погоды в соседних городах и на ближайших метеорологических станциях:

Погода в White Cliffs Aws (Новый Южный Уэльс, Австралия) (184 км)
Погода в Fowlers Gap Aws (Новый Южный Уэльс, Австралия) (184 км)
Погода в Ballera Gas Field (Квинсленд, Австралия) (227 км)
Погода в Moomba Airport (Южная Австралия, Австралия) (235 км)
Погода в Thargomindah Airport (Квинсленд, Австралия) (237 км)
Погода в Wilcannia Aerodrome (Новый Южный Уэльс, Австралия) (263 км)
Погода в Broken Hill Airport (Новый Южный Уэльс, Австралия) (289 км)
Погода в Leigh Creek Airport (Южная Австралия, Австралия) (372 км)
Погода в Bourke Airport Aws (Новый Южный Уэльс, Австралия) (382 км)
Погода в Marree Aero (Южная Австралия, Австралия) (387 км)

Пояснения к столбцам:

Ветер - указаны скорость ветра в м/с - средняя за 10 мин, порывы в срок и между сроками (в фигурных скобках) и направление, откуда дует ветер: С - северный, СВ - северо-восточный, В - восточный, ЮВ - юго-восточный, Ю - южный, ЮЗ - юго-западный, З - западный, СЗ - северо-западный.
Видимость - горизонтальная дальность видимости в метрах или километрах. При видимости от 1 до 10 км при отсутствии осадков обычно наблюдается дымка, при ухудшении видимости до 1 км и менее - туман. В сухую погоду видимость может ухудшаться дымом, пылью или мглою.
Явления - указаны атмосферные явления, наблюдавшиеся в срок или в последний час перед сроком; фигурными скобками обозначены явления, наблюдавшиеся между сроками (за 1-3 часа до срока); квадратными скобками обозначены град или гололедные отложения с указанием их диаметра в мм.
Облачность - указаны через наклонную черту общая и нижняя облачность в баллах и высота нижней границы облаков в метрах; квадратными скобками обозначены формы облаков: Ci - перистые, Cs - перисто-слоистые, Cc - перисто-кучевые, Ac - высококучевые, As - высокослоистые, Sc - слоисто-кучевые, Ns - слоисто-дождевые, Cu - кучевые, Cb - кучево-дождевые. Подробнее классификацию облаков см. в Атласе облаков (PDF).
T - Температура воздуха - температура, измеренная на высоте 2 м над землей.
Td - Температура точки росы - температура, при понижении до которой содержащийся в воздухе водяной пар достигнет насыщения.
f - Относительная влажность воздуха - влажноcть воздуха, измеренная на высоте 2 м над землей.
Te - Эффективная температура - температура, которую ощущает одетый по сезону человек в тени. Характеристика душности погоды. При расчете учитывается влияние влажности воздуха и скорости ветра на теплоощущения человека.
Tes - Эффективная температура на солнце - температура, которую ощущает человек, с поправкой на солнечный нагрев. Характеристика знойности погоды. Зависит от высоты солнца над горизонтом, облачности и скорости ветра. Ночью, в пасмурную погоду, а также при ветре 12 м/с и более поправка равна нулю.
P - Атмосферное давление - приведенное к уровню моря атмосферное давление.
Po - Атмосферное давление - измеренное на уровне метеостанции атмосферное давление.
Tmin - Минимальная температура - минимум температуры воздуха на высоте 2 м над землей.
Tmax - Максимальная температура - максимум температуры воздуха на высоте 2 м над землей.
R - Количество осадков - Количество выпавших осадков за период времени, мм. При наведении курсора мыши на число - период времени, за который выпало указанное количество осадков.
R24 - Количество осадков - Количество выпавших осадков за 24 часа, мм.
S - Снежный покров - Высота снежного покрова, см. При наведении курсора мыши на число - состояние снежного покрова и степень покрытия местности в баллах.